Altus AFB, OK

12:17 PM CDT on May 27, 2017 (GMT -0500)
Altus Air Force Base

Weather History for KLTS - April, 2012

Change the Weather History Date:

Friday, April 27, 2012

  Actual Average Record
Temperature  
Mean Temperature 78 °F -  
Max Temperature 93 °F 74 °F 93 °F (2012)
Min Temperature 63 °F 51 °F 37 °F (2017)
Cooling Degree Days 14    
Growing Degree Days 28 (Base 50)    
Moisture  
Dew Point 51 °F    
Average Humidity 55    
Maximum Humidity 100    
Minimum Humidity 11    
Precipitation  
Precipitation 0.00 in - - ()
Sea Level Pressure  
Sea Level Pressure 29.60 in    
Wind  
Wind Speed 13 mph (South)    
Max Wind Speed 26 mph    
Max Gust Speed 34 mph    
Visibility 10 miles    
Events      
Averages and records for this station are not official NWS values.
T = Trace of Precipitation, MM = Missing Value Source: NWS Daily Summary

Daily Weather History Graph

Daily Weather History Graph

Search for Another Location

Airport or City:

Trip Planner

Search our weather history database for the weather conditions in past years. The results will help you decide how hot, cold, wet, or windy it might be!

Date:

Astronomy

Apr. 27, 2012 Rise Set
Actual Time 6:50 AM CDT 8:19 PM CDT
Civil Twilight 6:23 AM CDT 8:45 PM CDT
Nautical Twilight 5:51 AM CDT 9:18 PM CDT
Astronomical Twilight 5:18 AM CDT 9:51 PM CDT
Moon 11:33 AM CDT 1:03 AM CDT
Length of Visible Light 14h 22m
Length of Day
13h 28m
Waxing Crescent, 33% of the Moon is Illuminated
Apr 27
Waxing Crescent
Apr 29
First Quarter
May 5
Full
May 12
Last Quarter
May 20
New

Hourly Weather History & Observations

Time (CDT) Temp. Dew Point Humidity Pressure Visibility Wind Dir Wind Speed Gust Speed Precip Events Conditions
12:55 AM 70.5 °F 68.2 °F 92% 29.67 in 10.0 mi East 15.0 mph - N/A   Clear
1:55 AM 69.8 °F 68.4 °F 95% 29.66 in 10.0 mi East 13.8 mph - N/A   Scattered Clouds
2:55 AM 69.4 °F 68.5 °F 97% 29.62 in 10.0 mi ESE 17.3 mph - N/A   Scattered Clouds
3:55 AM 68.7 °F 68.0 °F 98% 29.60 in 10.0 mi ESE 17.3 mph - N/A   Partly Cloudy
4:55 AM 67.8 °F 67.5 °F 99% 29.59 in 10.0 mi ESE 12.7 mph - N/A   Scattered Clouds
5:55 AM 67.6 °F 66.2 °F 95% 29.57 in 10.0 mi ESE 17.3 mph - N/A   Clear
6:55 AM 65.8 °F 64.6 °F 96% 29.60 in 10.0 mi Calm Calm - N/A   Clear
7:55 AM 64.8 °F 64.8 °F 100% 29.64 in 10.0 mi SSW 3.5 mph - N/A   Clear
8:06 AM 66.2 °F 64.4 °F 94% 29.65 in 10.0 mi South 8.1 mph - N/A   Scattered Clouds
8:11 AM 66.2 °F 64.4 °F 94% 29.65 in 10.0 mi South 6.9 mph - N/A   Scattered Clouds
8:55 AM 69.4 °F 65.7 °F 88% 29.64 in 10.0 mi SSW 4.6 mph - N/A   Clear
9:55 AM 77.0 °F 58.8 °F 53% 29.63 in 10.0 mi WSW 15.0 mph 23.0 mph N/A   Clear
10:55 AM 81.9 °F 38.1 °F 21% 29.61 in 10.0 mi WSW 17.3 mph 24.2 mph N/A   Clear
11:55 AM 84.2 °F 33.3 °F 16% 29.62 in 10.0 mi WSW 26.5 mph 34.5 mph N/A   Clear
12:55 PM 86.7 °F 32.5 °F 14% 29.62 in 10.0 mi WSW 25.3 mph 32.2 mph N/A   Clear
1:55 PM 89.8 °F 31.3 °F 12% 29.59 in 10.0 mi WSW 24.2 mph 33.4 mph N/A   Clear
2:55 PM 90.7 °F 34.0 °F 13% 29.59 in 10.0 mi West 12.7 mph 17.3 mph N/A   Clear
3:55 PM 93.4 °F 32.9 °F 12% 29.58 in 10.0 mi WSW 10.4 mph - N/A   Clear
4:55 PM 93.4 °F 32.0 °F 11% 29.56 in 10.0 mi West 13.8 mph 20.7 mph N/A   Clear
5:55 PM 93.0 °F 31.8 °F 11% 29.55 in 10.0 mi West 13.8 mph - N/A   Clear
6:55 PM 92.1 °F 33.3 °F 12% 29.54 in 10.0 mi West 11.5 mph - N/A   Clear
7:55 PM 89.1 °F 35.6 °F 15% 29.55 in 10.0 mi Calm Calm - N/A   Clear
8:55 PM 73.9 °F 46.8 °F 38% 29.57 in 8.0 mi East 6.9 mph - N/A   Clear
9:55 PM 70.5 °F 48.7 °F 46% 29.58 in 10.0 mi ENE 6.9 mph - N/A   Clear
10:55 PM 65.1 °F 48.7 °F 55% 29.59 in 5.0 mi East 3.5 mph - N/A   Haze
11:55 PM 63.1 °F 47.3 °F 56% 29.59 in 6.0 mi ENE 6.9 mph - N/A   Haze